This demonstration page uses our WeatherBlox Daily Observations layout. Learn more.

Left ArrowRight Arrow

38.89511, -77.03637

Hourly Observations for May 18, 2018

Temp ( °F °C ) Dew Point ( °F °C ) Humidity (%) Winds ( mph kmh ) Pressure ( in mb ) Visibility ( mi km ) Precip ( " mm )
12:30 am 00:30 Cloudy with Light Rain 66 18.9 64 17.8 93 93 NE 7 11 30.06 1018 4 6 0.07 1.78
12:44 am 00:44 Cloudy with Light Rain 67 19.4 64 17.8 91 91 NE 9 15 30.06 1018 4 6 0.09 2.29
12:52 am 00:52 Cloudy with Light Rain 67 19.4 64 17.8 91 91 ENE 8 13 30.07 1018 4 6 0.10 2.54
1:35 am 01:35 Cloudy with Light Rain 67 19.4 64 17.8 91 91 NE 7 11 30.06 1018 4 6 0.05 1.27
1:49 am 01:49 Cloudy with Light Rain 66 19 64 18 94 94 NE 8 13 30.06 1018 4 6 0.07 1.78
1:52 am 01:52 Cloudy with Light Rain 67 19.4 64 17.8 91 91 NNE 8 13 30.06 1018 4 6 0.08 2.03
2:52 am 02:52 Cloudy with Light Rain 67 19.4 64 17.8 91 91 NE 8 13 30.06 1018 4 6 0.04 1.02
3:52 am 03:52 Cloudy with Mist and Fog 67 19.4 64 17.8 91 91 NE 12 19 30.05 1018 4 6 0.02 0.51
4:52 am 04:52 Cloudy with Light Rain 67 19.4 64 17.8 91 91 NE 12 19 30.05 1018 5 8 0.01 0.25
5:11 am 05:11 Cloudy with Light Rain 67 19.4 64 17.8 91 91 NE 13 20 30.06 1018 5 8 0.00 0.03
5:41 am 05:41 Cloudy with Light Rain 67 19.4 64 17.8 91 91 NE 10 17 30.06 1018 10 16 0.01 0.25
5:52 am 05:52 Cloudy with Light Rain 67 19.4 64 17.8 91 91 NE 12 19 30.05 1018 10 16 0.01 0.25
5:59 am 05:59 Cloudy with Light Rain 67 19.4 64 17.8 91 91 ENE 12 19 30.06 1018 10 16 0.00 0.03
6:11 am 06:11 Cloudy with Light Rain 67 19.4 64 17.8 91 91 NE 10 17 30.06 1018 6 10 0.01 0.25
6:21 am 06:21 Cloudy with Light Rain 67 19.4 64 17.8 91 91 NE 13 20 30.06 1018 4 6 0.03 0.76
6:52 am 06:52 Cloudy with Light Rain 67 19.4 64 17.8 91 91 NE 12 19 30.07 1018 4 6 0.05 1.27
7:52 am 07:52 Cloudy 67 19.4 64 17.8 91 91 NE 15 24 30.08 1019 10 16 0.00 0.03
8:52 am 08:52 Cloudy with Light Rain 67 19.4 64 17.8 91 91 ENE 14 22 30.09 1019 10 16 0.01 0.25
9:31 am 09:31 Cloudy with Light Rain 68 20 65 18.3 90 90 NE 14 22 30.09 1019 10 16 0.00 0.03
9:52 am 09:52 Cloudy 68 20 64 17.8 87 87 ENE 12 19 30.10 1019 10 16 0.00 0.03
10:52 am 10:52 Cloudy with Heavy Rain 68 20 63 17.2 84 84 ENE 13 20 30.13 1020 3 5 0.04 1.02
10:54 am 10:54 Cloudy with Heavy Rain 68 20 63 17.2 84 84 ENE 13 20 30.15 1021 2 3 0.01 0.25
10:58 am 10:58 Cloudy with Heavy Rain 67 19.4 64 17.8 91 91 ENE 13 20 30.15 1021 1 2 0.06 1.52
11:17 am 11:17 Cloudy with Rain 67 19.4 64 17.8 91 91 ENE 9 15 30.15 1021 1 2 0.14 3.56
11:24 am 11:24 Cloudy with Rain 67 19.4 64 17.8 91 91 ENE 13 20 30.15 1021 2 3 0.16 4.06
11:31 am 11:31 Cloudy with Light Rain 67 19.4 64 17.8 91 91 ENE 9 15 30.15 1021 6 10 0.17 4.32
11:50 am 11:50 Cloudy with Heavy Rain 66 19 64 18 94 94 ENE 10 17 30.15 1021 2 3 0.24 6.10
11:52 am 11:52 Cloudy with Heavy Rain 67 19.4 64 17.8 91 91 ENE 10 17 30.15 1021 2 3 0.25 6.35
12:05 pm 12:05 Cloudy with Rain 67 19.4 64 17.8 91 91 ENE 12 19 30.15 1021 4 6 0.05 1.27
12:30 pm 12:30 Cloudy with Rain 67 19.4 64 17.8 91 91 ENE 10 17 30.15 1021 3 4 0.12 3.05
12:52 pm 12:52 Cloudy with Light Rain 68 20 64 17.8 87 87 ENE 13 20 30.15 1021 4 6 0.18 4.57
12:58 pm 12:58 Cloudy with Light Rain 68 20 64 17.8 87 87 NE 16 26 30.15 1021 5 8 0.00 0.03
1:52 pm 13:52 Cloudy with Light Rain 68 20 63 17.2 84 84 ENE 14 22 30.14 1021 10 16 0.02 0.51
2:46 pm 14:46 Cloudy with Light Rain 66 19 64 18 94 94 ENE 17 28 30.15 1021 4 6 0.01 0.25
2:52 pm 14:52 Cloudy with Light Rain 68 20 64 17.8 87 87 ENE 14 22 30.15 1021 5 8 0.02 0.51
2:55 pm 14:55 Cloudy with Light Rain 68 20 64 17.8 87 87 ENE 16 26 30.15 1021 5 8 0.00 0.03
3:17 pm 15:17 Cloudy with Light Rain 65 18.3 61 16.1 87 87 NE 20 31 30.15 1021 3 4 0.01 0.25
3:27 pm 15:27 Cloudy with Light Rain 65 18.3 61 16.1 87 87 NE 21 33 30.15 1021 3 5 0.01 0.25
3:35 pm 15:35 Cloudy with Light Rain 64 17.8 61 16.1 90 90 NE 21 33 30.15 1021 4 6 0.01 0.25
3:52 pm 15:52 Cloudy with Light Rain 64 17.8 61 16.1 90 90 NE 15 24 30.16 1021 4 6 0.01 0.25
4:02 pm 16:02 Cloudy with Light Rain 64 17.8 60 15.6 87 87 NE 20 31 30.15 1021 4 6 0.00 0.03
4:09 pm 16:09 Cloudy with Light Rain 63 17.2 60 15.6 90 90 NE 16 26 30.18 1022 6 10 0.00 0.03
4:30 pm 16:30 Cloudy 63 17.2 59 15 87 87 ENE 18 30 30.15 1021 10 16 0.00 0.03
4:52 pm 16:52 Cloudy 63 17.2 59 15 87 87 ENE 14 22 30.17 1022 10 16 0.00 0.03
5:52 pm 17:52 Cloudy with Rain 62 16.7 58 14.4 86 86 ENE 15 24 30.17 1022 3 5 0.04 1.02
6:52 pm 18:52 Cloudy with Light Rain 61 16.1 57 13.9 87 87 ENE 16 26 30.18 1022 10 16 0.08 2.03
7:27 pm 19:27 Cloudy with Light Rain 61 16.1 57 13.9 87 87 ENE 18 30 30.18 1022 10 16 0.01 0.25
7:52 pm 19:52 Cloudy with Light Rain 61 16.1 57 13.9 87 87 ENE 17 28 30.19 1022 10 16 0.02 0.51
8:52 pm 20:52 Cloudy with Light Rain 59 15 55 12.8 87 87 ENE 15 24 30.21 1023 10 16 0.00 0.03
9:52 pm 21:52 Cloudy with Light Rain 58 14.4 54 12.2 87 87 ENE 15 24 30.22 1023 10 16 0.04 1.02
10:00 pm 22:00 Cloudy with Light Rain 58 14.4 54 12.2 87 87 ENE 13 20 30.21 1023 10 16 0.00 0.03
10:25 pm 22:25 Cloudy with Light Rain 58 14.4 54 12.2 87 87 ENE 15 24 30.21 1023 10 16 0.01 0.25
10:52 pm 22:52 Cloudy with Light Rain 58 14.4 54 12.2 87 87 ENE 14 22 30.22 1023 10 16 0.02 0.51
11:52 pm 23:52 Cloudy with Light Rain 58 14.4 54 12.2 87 87 NE 14 22 30.21 1023 4 6 0.03 0.76

Powered by AerisWeather